Year,Month,Day,Hour,Minute,Value (Times are PST for temperature in C)
2006,12,15,00,00,5.70
2006,12,15,00,01,5.70
2006,12,15,00,02,5.80
2006,12,15,00,03,5.80
2006,12,15,00,04,5.80
2006,12,15,00,05,5.80
2006,12,15,00,06,5.90
2006,12,15,00,07,5.90
2006,12,15,00,08,5.90
2006,12,15,00,09,6.00
2006,12,15,00,10,6.00
2006,12,15,00,11,6.00
2006,12,15,00,12,6.10
2006,12,15,01,02,4.60
2006,12,15,01,03,4.60
2006,12,15,01,04,4.60
2006,12,15,01,05,4.60
2006,12,15,01,06,4.60
2006,12,15,01,07,4.60
2006,12,15,13,34,5.60
2006,12,15,13,35,5.60
2006,12,15,13,36,5.60
2006,12,15,13,37,5.60
2006,12,15,13,38,5.50
2006,12,15,13,39,5.50
2006,12,15,13,40,5.40
2006,12,15,13,41,5.40
2006,12,15,13,42,5.30
2006,12,15,13,43,5.30
2006,12,15,13,44,5.30
2006,12,15,13,45,5.30
2006,12,15,13,46,5.30
2006,12,15,13,47,5.20
2006,12,15,13,48,5.20
2006,12,15,13,49,5.20
2006,12,15,13,50,5.20
2006,12,15,13,51,5.20
2006,12,15,13,52,5.20
2006,12,15,13,53,5.10
2006,12,15,13,54,5.10
2006,12,15,13,55,5.10
2006,12,15,13,56,5.10
2006,12,15,13,57,5.10
2006,12,15,13,58,5.10
2006,12,15,13,59,5.10
2006,12,15,14,00,5.10
2006,12,15,14,01,5.10
2006,12,15,14,02,5.10
2006,12,15,14,03,5.00
2006,12,15,14,04,5.00
2006,12,15,14,05,5.00
2006,12,15,14,06,4.90
2006,12,15,14,07,4.90
2006,12,15,14,08,4.90
2006,12,15,14,09,4.80
2006,12,15,14,10,4.80
2006,12,15,14,11,4.80
2006,12,15,14,12,4.80
2006,12,15,14,13,4.80
2006,12,15,14,14,4.70
2006,12,15,14,15,4.70
2006,12,15,14,16,4.60
2006,12,15,14,17,4.60
2006,12,15,14,18,4.50
2006,12,15,14,19,4.50
2006,12,15,14,20,4.50
2006,12,15,14,21,4.40
2006,12,15,14,22,4.40
2006,12,15,14,23,4.40
2006,12,15,14,24,4.30
2006,12,15,14,25,4.30
2006,12,15,14,26,4.30
2006,12,15,14,27,4.20
2006,12,15,14,28,4.20
2006,12,15,14,29,4.20
2006,12,15,14,30,4.20
2006,12,15,14,31,4.20
2006,12,15,14,32,4.20
2006,12,15,14,33,4.10
2006,12,15,14,34,4.10
2006,12,15,14,35,4.10
2006,12,15,14,36,4.10
2006,12,15,14,37,4.20
2006,12,15,14,38,4.20
2006,12,15,14,39,4.20
2006,12,15,14,40,4.20
2006,12,15,14,41,4.20
2006,12,15,14,42,4.10
2006,12,15,14,43,4.10
2006,12,15,14,44,4.10
2006,12,15,14,45,4.10
2006,12,15,14,46,4.00
2006,12,15,14,47,4.00
2006,12,15,14,48,4.00
2006,12,15,14,49,3.90
2006,12,15,14,50,3.90
2006,12,15,14,51,3.90
2006,12,15,14,52,3.90
2006,12,15,14,53,3.90
2006,12,15,14,54,3.80
2006,12,15,14,55,3.80
2006,12,15,14,56,3.80
2006,12,15,14,57,3.80
2006,12,15,14,58,3.80
2006,12,15,14,59,3.70
2006,12,15,15,00,3.70
2006,12,15,15,01,3.70
2006,12,15,15,02,3.70
2006,12,15,15,03,3.70
2006,12,15,15,04,3.70
2006,12,15,15,05,3.70
2006,12,15,15,06,3.70
2006,12,15,15,07,3.60
2006,12,15,15,08,3.60
2006,12,15,15,09,3.60
2006,12,15,15,10,3.60
2006,12,15,15,11,3.60
2006,12,15,15,12,3.60
2006,12,15,15,13,3.60
2006,12,15,15,14,3.50
2006,12,15,15,15,3.50
2006,12,15,15,16,3.50
2006,12,15,15,17,3.50
2006,12,15,15,18,3.50
2006,12,15,15,19,3.50
2006,12,15,15,20,3.40
2006,12,15,15,21,3.40
2006,12,15,15,22,3.40
2006,12,15,15,23,3.40
2006,12,15,15,24,3.40
2006,12,15,15,25,3.40
2006,12,15,15,26,3.40
2006,12,15,15,27,3.40
2006,12,15,15,28,3.40
2006,12,15,15,29,3.40
2006,12,15,15,30,3.40
2006,12,15,15,31,3.40
2006,12,15,15,32,3.40
2006,12,15,15,33,3.40
2006,12,15,15,34,3.40
2006,12,15,15,35,3.40
2006,12,15,15,36,3.40
2006,12,15,15,37,3.40
2006,12,15,15,38,3.40
2006,12,15,15,39,3.40
2006,12,15,15,40,3.40
2006,12,15,15,41,3.40
2006,12,15,15,42,3.40
2006,12,15,15,43,3.30
2006,12,15,15,44,3.30
2006,12,15,15,45,3.30
2006,12,15,15,46,3.30
2006,12,15,15,47,3.30
2006,12,15,15,48,3.30
2006,12,15,15,49,3.30
2006,12,15,15,50,3.30
2006,12,15,15,51,3.30
2006,12,15,15,52,3.20
2006,12,15,15,53,3.20
2006,12,15,15,54,3.20
2006,12,15,15,55,3.20
2006,12,15,15,56,3.20
2006,12,15,15,57,3.20
2006,12,15,15,58,3.20
2006,12,15,15,59,3.20
2006,12,15,16,00,3.20
2006,12,15,16,01,3.20
2006,12,15,16,02,3.20
2006,12,15,16,03,3.20
2006,12,15,16,04,3.20
2006,12,15,16,05,3.20
2006,12,15,16,06,3.30
2006,12,15,16,07,3.30
2006,12,15,16,08,3.30
2006,12,15,16,09,3.30
2006,12,15,16,10,3.30
2006,12,15,16,11,3.30
2006,12,15,16,12,3.30
2006,12,15,16,13,3.30
2006,12,15,16,14,3.30
2006,12,15,16,15,3.30
2006,12,15,16,16,3.30
2006,12,15,16,17,3.30
2006,12,15,16,18,3.30
2006,12,15,16,19,3.30
2006,12,15,16,20,3.20
2006,12,15,16,21,3.30
2006,12,15,16,22,3.20
2006,12,15,16,23,3.20
2006,12,15,16,24,3.20
2006,12,15,16,25,3.20
2006,12,15,16,26,3.20
2006,12,15,16,27,3.20
2006,12,15,16,28,3.20
2006,12,15,16,29,3.20
2006,12,15,16,30,3.20
2006,12,15,16,31,3.20
2006,12,15,16,32,3.10
2006,12,15,16,33,3.10
2006,12,15,16,34,3.10
2006,12,15,16,35,3.00
2006,12,15,16,36,3.00
2006,12,15,16,37,2.90
2006,12,15,16,38,2.90
2006,12,15,16,39,2.90
2006,12,15,16,40,2.80
2006,12,15,16,41,2.80
2006,12,15,16,42,2.70
2006,12,15,16,43,2.70
2006,12,15,16,44,2.70
2006,12,15,16,45,2.60
2006,12,15,16,46,2.60
2006,12,15,16,47,2.60
2006,12,15,16,48,2.50
2006,12,15,16,49,2.50
2006,12,15,16,50,2.50
2006,12,15,16,51,2.40
2006,12,15,16,52,2.40
2006,12,15,16,53,2.30
2006,12,15,16,54,2.30
2006,12,15,16,55,2.30
2006,12,15,16,56,2.30
2006,12,15,16,57,2.20
2006,12,15,16,58,2.20
2006,12,15,16,59,2.20
2006,12,15,17,00,2.20
2006,12,15,17,01,2.10
2006,12,15,17,02,2.10
2006,12,15,17,03,2.10
2006,12,15,17,04,2.00
2006,12,15,17,05,2.00
2006,12,15,17,06,1.90
2006,12,15,17,07,1.90
2006,12,15,17,08,1.90
2006,12,15,17,09,1.90
2006,12,15,17,10,1.80
2006,12,15,17,11,1.80
2006,12,15,17,12,1.80
2006,12,15,17,13,1.80
2006,12,15,17,14,1.70
2006,12,15,17,15,1.70
2006,12,15,17,16,1.70
2006,12,15,17,17,1.70
2006,12,15,17,18,1.70
2006,12,15,17,19,1.70
2006,12,15,17,20,1.70
2006,12,15,17,21,1.70
2006,12,15,17,22,1.70
2006,12,15,17,23,1.60
2006,12,15,17,24,1.60
2006,12,15,17,25,1.60
2006,12,15,17,26,1.60
2006,12,15,17,27,1.60
2006,12,15,17,28,1.50
2006,12,15,17,29,1.50
2006,12,15,17,30,1.50
2006,12,15,17,31,1.40
2006,12,15,17,32,1.40
2006,12,15,17,33,1.40
2006,12,15,17,34,1.40
2006,12,15,17,35,1.40
2006,12,15,17,36,1.40
2006,12,15,17,37,1.30
2006,12,15,17,38,1.30
2006,12,15,17,39,1.30
2006,12,15,17,40,1.30
2006,12,15,17,41,1.30
2006,12,15,17,42,1.30
2006,12,15,17,43,1.30
2006,12,15,17,44,1.30
2006,12,15,17,45,1.30
2006,12,15,17,46,1.30
2006,12,15,17,47,1.30
2006,12,15,17,48,1.30
2006,12,15,17,49,1.20
2006,12,15,17,50,1.20
2006,12,15,17,51,1.20
2006,12,15,17,52,1.20
2006,12,15,17,53,1.20
2006,12,15,17,54,1.10
2006,12,15,17,55,1.10
2006,12,15,17,56,1.10
2006,12,15,17,57,1.10
2006,12,15,17,58,1.10
2006,12,15,17,59,1.10
2006,12,15,18,00,1.00
2006,12,15,18,01,1.00
2006,12,15,18,02,1.00
2006,12,15,18,03,1.00
2006,12,15,18,04,1.00
2006,12,15,18,05,1.00
2006,12,15,18,06,1.00
2006,12,15,18,07,1.00
2006,12,15,18,08,1.00
2006,12,15,18,09,1.00
2006,12,15,18,10,1.00
2006,12,15,18,11,1.00
2006,12,15,18,12,1.00
2006,12,15,18,13,1.00
2006,12,15,18,14,1.00
2006,12,15,18,15,1.00
2006,12,15,18,16,1.00
2006,12,15,18,17,1.00
2006,12,15,18,18,1.00
2006,12,15,18,19,1.00
2006,12,15,18,20,1.00
2006,12,15,18,21,1.00
2006,12,15,18,22,1.00
2006,12,15,18,23,1.00
2006,12,15,18,24,1.00
2006,12,15,18,25,1.00
2006,12,15,18,26,1.00
2006,12,15,18,27,1.00
2006,12,15,18,28,1.00
2006,12,15,18,29,1.00
2006,12,15,18,30,1.00
2006,12,15,18,31,1.00
2006,12,15,18,32,1.00
2006,12,15,18,33,1.10
2006,12,15,18,34,1.10
2006,12,15,18,35,1.10
2006,12,15,18,36,1.10
2006,12,15,18,37,1.10
2006,12,15,18,38,1.10
2006,12,15,18,39,1.10
2006,12,15,18,40,1.10
2006,12,15,18,41,1.10
2006,12,15,18,42,1.10
2006,12,15,18,43,1.10
2006,12,15,18,44,1.10
2006,12,15,18,45,1.10
2006,12,15,18,46,1.10
2006,12,15,18,47,1.20
2006,12,15,18,48,1.20
2006,12,15,18,49,1.20
2006,12,15,18,50,1.20
2006,12,15,18,51,1.20
2006,12,15,18,52,1.20
2006,12,15,18,53,1.20
2006,12,15,18,54,1.20
2006,12,15,18,55,1.20
2006,12,15,18,56,1.20
2006,12,15,18,57,1.20
2006,12,15,18,58,1.20
2006,12,15,18,59,1.20
2006,12,15,19,00,1.20
2006,12,15,19,01,1.20
2006,12,15,19,02,1.20
2006,12,15,19,03,1.20
2006,12,15,19,04,1.20
2006,12,15,19,05,1.20
2006,12,15,19,06,1.20
2006,12,15,19,07,1.20
2006,12,15,19,08,1.20
2006,12,15,19,09,1.10
2006,12,15,19,10,1.10
2006,12,15,19,11,1.10
2006,12,15,19,12,1.10
2006,12,15,19,13,1.10
2006,12,15,19,14,1.10
2006,12,15,19,15,1.00
2006,12,15,19,16,1.00
2006,12,15,19,17,1.00
2006,12,15,19,18,0.90
2006,12,15,19,19,0.90
2006,12,15,19,20,0.90
2006,12,15,19,21,0.90
2006,12,15,19,22,0.90
2006,12,15,19,23,0.90
2006,12,15,19,24,0.80
2006,12,15,19,25,0.80
2006,12,15,19,26,0.80
2006,12,15,19,27,0.80
2006,12,15,19,28,0.80
2006,12,15,19,29,0.80
2006,12,15,19,30,0.80
2006,12,15,19,31,0.80
2006,12,15,19,32,0.80
2006,12,15,19,33,0.80
2006,12,15,19,34,0.80
2006,12,15,19,35,0.80
2006,12,15,19,36,0.80
2006,12,15,19,37,0.80
2006,12,15,19,38,0.80
2006,12,15,19,39,0.80
2006,12,15,19,40,0.80
2006,12,15,19,41,0.80
2006,12,15,19,42,0.80
2006,12,15,19,43,0.90
2006,12,15,19,44,0.90
2006,12,15,19,45,0.90
2006,12,15,19,46,0.90
2006,12,15,19,47,0.90
2006,12,15,19,48,0.90
2006,12,15,19,49,0.90
2006,12,15,19,50,0.90
2006,12,15,19,51,0.90
2006,12,15,19,52,0.90
2006,12,15,19,53,0.90
2006,12,15,19,54,0.90
2006,12,15,19,55,0.90
2006,12,15,19,56,0.90
2006,12,15,19,57,0.90
2006,12,15,19,58,0.90
2006,12,15,19,59,0.90
2006,12,15,20,00,0.90
2006,12,15,20,01,0.90
2006,12,15,20,02,0.80
2006,12,15,20,03,0.80
2006,12,15,20,04,0.80
2006,12,15,20,05,0.80
2006,12,15,20,06,0.80
2006,12,15,20,07,0.80
2006,12,15,20,08,0.80
2006,12,15,20,09,0.80
2006,12,15,20,10,0.80
2006,12,15,20,11,0.80
2006,12,15,20,12,0.80
2006,12,15,20,13,0.80
2006,12,15,20,14,0.80
2006,12,15,20,15,0.80
2006,12,15,20,16,0.80
2006,12,15,20,17,0.80
2006,12,15,20,18,0.80
2006,12,15,20,19,0.80
2006,12,15,20,20,0.80
2006,12,15,20,21,0.80
2006,12,15,20,22,0.80
2006,12,15,20,23,0.80
2006,12,15,20,24,0.70
2006,12,15,20,25,0.70
2006,12,15,20,26,0.70
2006,12,15,20,27,0.70
2006,12,15,20,28,0.70
2006,12,15,20,29,0.70
2006,12,15,20,30,0.70
2006,12,15,20,31,0.70
2006,12,15,20,32,0.70
2006,12,15,20,33,0.70
2006,12,15,20,34,0.70
2006,12,15,20,35,0.70
2006,12,15,20,36,0.70
2006,12,15,20,37,0.70
2006,12,15,20,38,0.70
2006,12,15,20,39,0.70
2006,12,15,20,40,0.70
2006,12,15,20,41,0.70
2006,12,15,20,42,0.70
2006,12,15,20,43,0.70
2006,12,15,20,44,0.70
2006,12,15,20,45,0.70
2006,12,15,20,46,0.70
2006,12,15,20,47,0.70
2006,12,15,20,48,0.70
2006,12,15,20,49,0.70
2006,12,15,20,50,0.70
2006,12,15,20,51,0.70
2006,12,15,20,52,0.70
2006,12,15,20,53,0.70
2006,12,15,20,54,0.70
2006,12,15,20,55,0.70
2006,12,15,20,56,0.70
2006,12,15,20,57,0.70
2006,12,15,20,58,0.70
2006,12,15,20,59,0.70
2006,12,15,21,00,0.70
2006,12,15,21,01,0.70
2006,12,15,21,02,0.70
2006,12,15,21,03,0.70
2006,12,15,21,04,0.70
2006,12,15,21,05,0.70
2006,12,15,21,06,0.70
2006,12,15,21,07,0.70
2006,12,15,21,08,0.70
2006,12,15,21,09,0.70
2006,12,15,21,10,0.70
2006,12,15,21,11,0.70
2006,12,15,21,12,0.70
2006,12,15,21,13,0.70
2006,12,15,21,14,0.70
2006,12,15,21,15,0.70
2006,12,15,21,16,0.70
2006,12,15,21,17,0.70
2006,12,15,21,18,0.70
2006,12,15,21,19,0.70
2006,12,15,21,20,0.70
2006,12,15,21,21,0.70
2006,12,15,21,22,0.70
2006,12,15,21,23,0.70
2006,12,15,21,24,0.70
2006,12,15,21,25,0.70
2006,12,15,21,26,0.70
2006,12,15,21,27,0.70
2006,12,15,21,28,0.70
2006,12,15,21,29,0.70
2006,12,15,21,30,0.70
2006,12,15,21,31,0.70
2006,12,15,21,32,0.70
2006,12,15,21,33,0.70
2006,12,15,21,34,0.70
2006,12,15,21,35,0.70
2006,12,15,21,36,0.70
2006,12,15,21,37,0.70
2006,12,15,21,38,0.70
2006,12,15,21,39,0.70
2006,12,15,21,40,0.80
2006,12,15,21,41,0.80
2006,12,15,21,42,0.80
2006,12,15,21,43,0.80
2006,12,15,21,44,0.80
2006,12,15,21,45,0.80
2006,12,15,21,46,0.90
2006,12,15,21,47,0.90
2006,12,15,21,48,0.90
2006,12,15,21,49,0.90
2006,12,15,21,50,0.90
2006,12,15,21,51,0.90
2006,12,15,21,52,0.90
2006,12,15,21,53,0.90
2006,12,15,21,54,1.00
2006,12,15,21,55,1.00
2006,12,15,21,56,1.00
2006,12,15,21,57,1.10
2006,12,15,21,58,1.10
2006,12,15,21,59,1.10
2006,12,15,22,00,1.10
2006,12,15,22,01,1.20
2006,12,15,22,02,1.20
2006,12,15,22,03,1.20
2006,12,15,22,04,1.20
2006,12,15,22,05,1.30
2006,12,15,22,06,1.30
2006,12,15,22,07,1.30
2006,12,15,22,08,1.30
2006,12,15,22,09,1.30
2006,12,15,22,10,1.30
2006,12,15,22,11,1.30
2006,12,15,22,12,1.30
2006,12,15,22,13,1.30
2006,12,15,22,14,1.30
2006,12,15,22,15,1.30
2006,12,15,22,16,1.30
2006,12,15,22,17,1.30
2006,12,15,22,18,1.30
2006,12,15,22,19,1.30
2006,12,15,22,20,1.20
2006,12,15,22,21,1.20
2006,12,15,22,22,1.20
2006,12,15,22,23,1.20
2006,12,15,22,24,1.20
2006,12,15,22,25,1.20
2006,12,15,22,26,1.10
2006,12,15,22,27,1.10
2006,12,15,22,28,1.10
2006,12,15,22,29,1.10
2006,12,15,22,30,1.10
2006,12,15,22,31,1.10
2006,12,15,22,32,1.10
2006,12,15,22,33,1.10
2006,12,15,22,34,1.00
2006,12,15,22,35,1.00
2006,12,15,22,36,1.00
2006,12,15,22,37,1.00
2006,12,15,22,38,1.00
2006,12,15,22,39,1.00
2006,12,15,22,40,1.00
2006,12,15,22,41,0.90
2006,12,15,22,42,0.90
2006,12,15,22,43,0.90
2006,12,15,22,44,0.90
2006,12,15,22,45,0.90
2006,12,15,22,46,0.90
2006,12,15,22,47,0.90
2006,12,15,22,48,0.90
2006,12,15,22,49,0.90
2006,12,15,22,50,0.90
2006,12,15,22,51,0.90
2006,12,15,22,52,0.90
2006,12,15,22,53,0.90
2006,12,15,22,54,0.90
2006,12,15,22,55,0.90
2006,12,15,22,56,0.90
2006,12,15,22,57,0.90
2006,12,15,22,58,0.90
2006,12,15,22,59,0.90
2006,12,15,23,00,0.90
2006,12,15,23,01,0.90
2006,12,15,23,02,0.90
2006,12,15,23,03,0.90
2006,12,15,23,04,0.90
2006,12,15,23,05,0.90
2006,12,15,23,06,0.90
2006,12,15,23,07,0.90
2006,12,15,23,08,0.90
2006,12,15,23,09,0.90
2006,12,15,23,10,0.90
2006,12,15,23,11,0.90
2006,12,15,23,12,0.90
2006,12,15,23,13,0.90
2006,12,15,23,14,0.90
2006,12,15,23,15,0.90
2006,12,15,23,16,0.90
2006,12,15,23,17,0.90
2006,12,15,23,18,1.00
2006,12,15,23,19,1.00
2006,12,15,23,20,1.00
2006,12,15,23,21,1.00
2006,12,15,23,22,1.00
2006,12,15,23,23,1.00
2006,12,15,23,24,1.00
2006,12,15,23,25,1.00
2006,12,15,23,26,1.00
2006,12,15,23,27,1.00
2006,12,15,23,28,1.10
2006,12,15,23,29,1.00
2006,12,15,23,30,1.00
2006,12,15,23,31,1.00
2006,12,15,23,32,1.00
2006,12,15,23,33,1.00
2006,12,15,23,34,1.00
2006,12,15,23,35,1.00
2006,12,15,23,36,1.00
2006,12,15,23,37,1.00
2006,12,15,23,38,0.90
2006,12,15,23,39,0.90
2006,12,15,23,40,0.90
2006,12,15,23,41,0.90
2006,12,15,23,42,0.90
2006,12,15,23,43,0.90
2006,12,15,23,44,0.90
2006,12,15,23,45,0.90
2006,12,15,23,46,0.90
2006,12,15,23,47,0.90
2006,12,15,23,48,0.90
2006,12,15,23,49,0.90
2006,12,15,23,50,0.90
2006,12,15,23,51,0.90
2006,12,15,23,52,0.90
2006,12,15,23,53,0.90
2006,12,15,23,54,0.90
2006,12,15,23,55,0.90
2006,12,15,23,56,0.90
2006,12,15,23,57,0.90
2006,12,15,23,58,0.90
2006,12,15,23,59,0.90
